Location: DARK SKY Beskydy - Park tmavé oblohy, www.darkskybeskydy.cz
(49.4926°N, 18.5016°E)
Time: 08:11:59
(UTC+02:00)

Envisat - Pass Details

Date: 26 June 2024
Orbit: 762 x 764 km, 98.3° (Epoch: 12 July)

Event Time Altitude Azimuth Distance (km) Brightness Sun altitude
Rises 03:47:08 0° 17° (NNE) 3,237 7.7 -7.1°
Reaches altitude 10° 03:49:31 10° 22° (NNE) 2,307 6.9 -6.9°
Maximum altitude 03:54:29 54° 100° (E) 925 3.7 -6.3°
Drops below altitude 10° 03:59:26 10° 178° (S) 2,289 5.1 -5.8°
Sets 04:01:46 0° 183° (S) 3,211 5.8 -5.5°
